When you browse on this site, cookies collect data to enhance your experience and personalize the content and advertising you see.
Visit our Privacy Policy to learn more. By continuing to use the site, you agree to this use of cookies and data.
  • In United Kingdom
  • List of Countries
  • For 7 days
  • Water Temperature
  • Weather Map
  • Weather Widgets
  • user-avatar
    Login

    Hourly Weather Wabal

    Today, 20 August, Tuesday

    Time Temperature Precipitation Wind Pressure Humidity
    00:00 +23°C° 0.1 mm 0 mps 751 mmHg 92%
    01:00 +22°C° 0.1 mm 0 mps 751 mmHg 94%
    02:00 +22°C° 0.3 mm 0 mps 751 mmHg 94%
    03:00 +22°C° 0.3 mm 0 mps 751 mmHg 95%
    04:00 +22°C° 0 mm 0 mps 750 mmHg 94%
    05:00 +22°C° 0.2 mm 0 mps 751 mmHg 94%
    06:00 +22°C° 0.2 mm 0 mps 751 mmHg 94%
    07:00 +22°C° 0.2 mm 0 mps 751 mmHg 94%
    08:00 +25°C° 0 mm 0 mps 751 mmHg 83%
    09:00 +27°C° 0 mm 0 mps 751 mmHg 73%
    10:00 +30°C° 0 mm 0 mps 751 mmHg 63%
    11:00 +32°C° 0 mm 0 mps 750 mmHg 58%
    12:00 +35°C° 0 mm 1 mps 750 mmHg 53%
    13:00 +36°C° 0 mm 1 mps 749 mmHg 49%
    14:00 +36°C° 0.1 mm 1 mps 749 mmHg 50%
    15:00 +35°C° 0.1 mm 1 mps 748 mmHg 51%
    16:00 +35°C° 0 mm 1 mps 748 mmHg 52%
    17:00 +32°C° 0.6 mm 1 mps 749 mmHg 66%
    18:00 +29°C° 0.6 mm 1 mps 749 mmHg 81%
    19:00 +25°C° 0.6 mm 0 mps 750 mmHg 95%
    20:00 +24°C° 0.2 mm 0 mps 750 mmHg 96%
    21:00 +26°C° 0.2 mm 1 mps 751 mmHg 97%
    22:00 +25°C° 0.2 mm 1 mps 751 mmHg 97%
    23:00 +25°C° 0.9 mm 1 mps 751 mmHg 98%

    Tomorrow, 21 August, Wednesday

    Time Temperature Precipitation Wind Pressure Humidity
    00:00 +25°C° 0.9 mm 1 mps 751 mmHg 98%
    01:00 +25°C° 0.9 mm 1 mps 751 mmHg 98%
    02:00 +25°C° 0.1 mm 1 mps 750 mmHg 98%
    03:00 +24°C° 0.1 mm 1 mps 750 mmHg 98%
    04:00 +24°C° 0.1 mm 1 mps 750 mmHg 97%
    05:00 +22°C° 0 mm 0 mps 750 mmHg 97%
    06:00 +22°C° 0 mm 0 mps 751 mmHg 96%
    07:00 +22°C° 0 mm 0 mps 751 mmHg 96%
    08:00 +25°C° 0 mm 0 mps 751 mmHg 86%
    09:00 +27°C° 0 mm 0 mps 751 mmHg 77%
    10:00 +31°C° 0 mm 1 mps 752 mmHg 67%
    11:00 +32°C° 0.2 mm 1 mps 751 mmHg 64%
    12:00 +33°C° 0.2 mm 1 mps 750 mmHg 60%
    13:00 +34°C° 0.2 mm 1 mps 749 mmHg 57%
    14:00 +34°C° 0.2 mm 1 mps 749 mmHg 58%
    15:00 +33°C° 0.2 mm 1 mps 749 mmHg 59%
    16:00 +33°C° 0.2 mm 1 mps 749 mmHg 60%
    17:00 +31°C° 0.6 mm 1 mps 749 mmHg 72%
    18:00 +28°C° 0.6 mm 1 mps 750 mmHg 84%
    19:00 +26°C° 0.6 mm 1 mps 750 mmHg 95%
    20:00 +24°C° 0 mm 0 mps 751 mmHg 96%
    21:00 +23°C° 0 mm 0 mps 751 mmHg 96%
    22:00 +23°C° 0 mm 0 mps 752 mmHg 96%
    23:00 +23°C° 0 mm 0 mps 751 mmHg 96%

    Day after tomorrow, 22 August, Thursday

    Time Temperature Precipitation Wind Pressure Humidity
    00:00 +23°C° 0 mm 0 mps 751 mmHg 96%
    01:00 +22°C° 0 mm 0 mps 750 mmHg 96%
    02:00 +22°C° 0 mm 0 mps 750 mmHg 96%
    03:00 +22°C° 0 mm 0 mps 750 mmHg 96%
    04:00 +22°C° 0 mm 0 mps 750 mmHg 96%
    05:00 +22°C° 0 mm 0 mps 750 mmHg 95%
    06:00 +22°C° 0 mm 0 mps 751 mmHg 94%
    07:00 +22°C° 0 mm 0 mps 751 mmHg 94%
    08:00 +24°C° 0 mm 0 mps 751 mmHg 83%
    09:00 +29°C° 0 mm 1 mps 751 mmHg 72%
    10:00 +31°C° 0 mm 1 mps 752 mmHg 62%
    11:00 +33°C° 0.1 mm 1 mps 751 mmHg 56%
    12:00 +35°C° 0.1 mm 1 mps 750 mmHg 51%
    13:00 +36°C° 0.1 mm 1 mps 749 mmHg 46%
    14:00 +36°C° 0.2 mm 1 mps 749 mmHg 48%
    15:00 +35°C° 0.2 mm 1 mps 749 mmHg 51%
    16:00 +34°C° 0.2 mm 1 mps 749 mmHg 53%
    17:00 +32°C° 0.8 mm 1 mps 749 mmHg 67%
    18:00 +29°C° 0.8 mm 1 mps 750 mmHg 81%
    19:00 +26°C° 0.8 mm 1 mps 750 mmHg 95%
    20:00 +26°C° 0.7 mm 1 mps 751 mmHg 96%
    21:00 +25°C° 0.7 mm 1 mps 751 mmHg 97%
    22:00 +25°C° 0.7 mm 1 mps 752 mmHg 98%
    23:00 +25°C° 0.6 mm 1 mps 752 mmHg 98%

    23 August, Friday

    Time Temperature Precipitation Wind Pressure Humidity
    00:00 +25°C° 0.6 mm 1 mps 751 mmHg 98%
    01:00 +25°C° 0.6 mm 1 mps 751 mmHg 98%
    02:00 +25°C° 0.4 mm 1 mps 751 mmHg 98%
    03:00 +24°C° 0.4 mm 1 mps 751 mmHg 98%
    04:00 +24°C° 0.4 mm 1 mps 751 mmHg 98%
    05:00 +24°C° 0 mm 1 mps 751 mmHg 97%
    06:00 +25°C° 0 mm 1 mps 751 mmHg 96%
    07:00 +23°C° 0 mm 0 mps 752 mmHg 96%
    08:00 +26°C° 0 mm 1 mps 752 mmHg 88%
    09:00 +28°C° 0 mm 1 mps 752 mmHg 80%
    10:00 +30°C° 0 mm 1 mps 752 mmHg 73%
    11:00 +32°C° 0.1 mm 1 mps 751 mmHg 65%
    12:00 +34°C° 0.1 mm 1 mps 750 mmHg 56%
    13:00 +36°C° 0.1 mm 1 mps 750 mmHg 48%
    14:00 +35°C° 0.6 mm 1 mps 750 mmHg 55%
    15:00 +33°C° 0.6 mm 1 mps 749 mmHg 63%
    16:00 +32°C° 0.6 mm 1 mps 749 mmHg 70%
    17:00 +30°C° 2.7 mm 1 mps 750 mmHg 79%
    18:00 +28°C° 2.7 mm 1 mps 750 mmHg 88%
    19:00 +26°C° 2.7 mm 1 mps 751 mmHg 97%
    20:00 +26°C° 2.5 mm 1 mps 751 mmHg 97%
    21:00 +26°C° 2.5 mm 1 mps 752 mmHg 98%
    22:00 +25°C° 2.5 mm 1 mps 752 mmHg 98%
    23:00 +25°C° 3 mm 1 mps 752 mmHg 98%

    24 August, Saturday

    Time Temperature Precipitation Wind Pressure Humidity
    00:00 +25°C° 3 mm 1 mps 752 mmHg 98%
    01:00 +25°C° 3 mm 1 mps 752 mmHg 99%
    02:00 +25°C° 2.7 mm 1 mps 752 mmHg 99%
    03:00 +25°C° 2.7 mm 1 mps 752 mmHg 99%
    04:00 +25°C° 2.7 mm 1 mps 751 mmHg 99%
    05:00 +23°C° 0.3 mm 0 mps 752 mmHg 98%
    06:00 +22°C° 0.3 mm 0 mps 752 mmHg 98%
    07:00 +22°C° 0.3 mm 0 mps 752 mmHg 98%
    08:00 +24°C° 0 mm 0 mps 752 mmHg 92%
    09:00 +25°C° 0 mm 0 mps 752 mmHg 86%
    10:00 +29°C° 0 mm 1 mps 753 mmHg 80%
    11:00 +31°C° 0 mm 1 mps 752 mmHg 70%
    12:00 +33°C° 0 mm 1 mps 751 mmHg 60%
    13:00 +35°C° 0 mm 1 mps 750 mmHg 50%
    14:00 +35°C° 0.1 mm 1 mps 749 mmHg 51%
    15:00 +35°C° 0.1 mm 1 mps 749 mmHg 51%
    16:00 +35°C° 0.1 mm 1 mps 749 mmHg 52%
    17:00 +32°C° 1.1 mm 1 mps 749 mmHg 66%
    18:00 +29°C° 1.1 mm 1 mps 750 mmHg 80%
    19:00 +26°C° 1.1 mm 1 mps 750 mmHg 95%
    20:00 +26°C° 1.4 mm 1 mps 751 mmHg 96%
    21:00 +25°C° 1.4 mm 1 mps 752 mmHg 97%
    22:00 +23°C° 1.4 mm 0 mps 752 mmHg 98%
    23:00 +23°C° 1.1 mm 0 mps 752 mmHg 98%

    25 August, Sunday

    Time Temperature Precipitation Wind Pressure Humidity
    00:00 +25°C° 1.1 mm 1 mps 752 mmHg 98%
    01:00 +25°C° 1.1 mm 1 mps 751 mmHg 98%
    02:00 +24°C° 0.9 mm 1 mps 751 mmHg 98%
    03:00 +24°C° 0.9 mm 1 mps 751 mmHg 98%
    04:00 +24°C° 0.9 mm 1 mps 751 mmHg 98%
    05:00 +24°C° 0.6 mm 1 mps 751 mmHg 98%
    06:00 +24°C° 0.6 mm 1 mps 751 mmHg 97%
    07:00 +24°C° 0.6 mm 1 mps 752 mmHg 97%
    08:00 +26°C° 0 mm 1 mps 752 mmHg 87%
    09:00 +28°C° 0 mm 1 mps 752 mmHg 77%
    10:00 +31°C° 0 mm 1 mps 752 mmHg 67%
    11:00 +32°C° 0.1 mm 1 mps 751 mmHg 61%
    12:00 +34°C° 0.1 mm 1 mps 750 mmHg 56%
    13:00 +34°C° 0.1 mm 0 mps 749 mmHg 50%
    14:00 +34°C° 0.4 mm 1 mps 749 mmHg 60%
    15:00 +32°C° 0.4 mm 1 mps 749 mmHg 69%
    16:00 +31°C° 0.4 mm 2 mps 748 mmHg 78%
    17:00 +29°C° 1 mm 1 mps 749 mmHg 85%
    18:00 +27°C° 1 mm 1 mps 750 mmHg 91%
    19:00 +26°C° 1 mm 1 mps 750 mmHg 97%
    20:00 +26°C° 0.8 mm 1 mps 751 mmHg 97%
    21:00 +25°C° 0.8 mm 1 mps 751 mmHg 98%
    22:00 +25°C° 0.8 mm 1 mps 752 mmHg 98%
    23:00 +25°C° 1.3 mm 1 mps 751 mmHg 98%
    Show more